TimeEST,TemperatureF,Dew PointF,Humidity,Sea Level PressureIn,VisibilityMPH,Wind Direction,Wind SpeedMPH,Gust SpeedMPH,PrecipitationIn,Events,Conditions,WindDirDegrees,DateUTC
12:15 AM,5.0,-6.3,60,30.37,10.0,NNW,4.6,-,N/A,,Overcast,330,2014-01-24 05:15:00
12:35 AM,4.8,-6.0,61,30.38,10.0,WNW,9.2,-,N/A,,Overcast,300,2014-01-24 05:35:00
12:55 AM,4.1,-5.6,64,30.39,10.0,NW,3.5,-,N/A,,Overcast,320,2014-01-24 05:55:00
1:15 AM,3.9,-4.9,67,30.39,10.0,WNW,3.5,-,N/A,,Overcast,300,2014-01-24 06:15:00
1:35 AM,3.9,-4.0,70,30.39,7.0,West,10.4,-,N/A,,Overcast,280,2014-01-24 06:35:00
1:55 AM,3.7,-3.8,71,30.39,5.0,West,11.5,-,N/A,,Haze,270,2014-01-24 06:55:00
2:15 AM,3.2,-4.9,69,30.39,7.0,West,16.1,-,N/A,,Overcast,270,2014-01-24 07:15:00
2:35 AM,3.2,-5.8,66,30.40,10.0,West,18.4,25.3,N/A,,Overcast,270,2014-01-24 07:35:00
2:55 AM,2.8,-6.7,64,30.41,10.0,West,18.4,-,N/A,,Scattered Clouds,280,2014-01-24 07:55:00
3:15 AM,2.8,-6.3,66,30.42,10.0,WNW,19.6,24.2,N/A,,Scattered Clouds,290,2014-01-24 08:15:00
3:35 AM,2.3,-5.3,71,30.42,5.0,West,16.1,23.0,N/A,,Haze,270,2014-01-24 08:35:00
3:55 AM,2.1,-6.3,68,30.42,10.0,West,18.4,-,N/A,,Overcast,270,2014-01-24 08:55:00
4:15 AM,1.8,-6.7,68,30.42,10.0,West,16.1,20.7,N/A,,Overcast,260,2014-01-24 09:15:00
4:35 AM,1.4,-6.7,69,30.42,10.0,West,16.1,19.6,N/A,,Overcast,260,2014-01-24 09:35:00
4:55 AM,1.4,-7.1,68,30.42,10.0,West,13.8,-,N/A,,Overcast,270,2014-01-24 09:55:00
5:15 AM,1.2,-7.4,67,30.42,10.0,West,13.8,21.9,N/A,,Overcast,270,2014-01-24 10:15:00
5:35 AM,1.0,-7.4,68,30.42,10.0,West,10.4,16.1,N/A,,Overcast,260,2014-01-24 10:35:00
5:55 AM,0.9,-7.6,68,30.44,10.0,WSW,6.9,-,N/A,,Overcast,250,2014-01-24 10:55:00
6:15 AM,0.5,-7.1,70,30.44,10.0,WSW,6.9,-,N/A,,Overcast,250,2014-01-24 11:15:00
6:35 AM,-0.0,-6.5,74,30.44,10.0,WSW,5.8,-,N/A,,Overcast,250,2014-01-24 11:35:00
6:55 AM,-0.6,-6.7,75,30.44,10.0,West,6.9,-,N/A,,Mostly Cloudy,260,2014-01-24 11:55:00
7:15 AM,-0.6,-6.7,75,30.44,10.0,West,9.2,-,N/A,,Scattered Clouds,280,2014-01-24 12:15:00
7:35 AM,-0.9,-7.1,75,30.44,10.0,West,8.1,-,N/A,,Clear,280,2014-01-24 12:35:00
7:55 AM,-1.3,-7.6,75,30.43,10.0,West,4.6,-,N/A,,Clear,260,2014-01-24 12:55:00
8:15 AM,-0.6,-6.7,75,30.42,10.0,WSW,4.6,-,N/A,,Clear,250,2014-01-24 13:15:00
8:35 AM,0.5,-6.0,74,30.41,10.0,WSW,3.5,-,N/A,,Clear,240,2014-01-24 13:35:00
8:55 AM,1.8,-5.3,72,30.40,10.0,SSW,3.5,-,N/A,,Clear,210,2014-01-24 13:55:00
9:15 AM,2.7,-4.9,71,30.41,10.0,SW,5.8,-,N/A,,Clear,220,2014-01-24 14:15:00
9:35 AM,3.9,-4.9,67,30.42,10.0,SSW,5.8,-,N/A,,Clear,210,2014-01-24 14:35:00
9:55 AM,4.6,-4.9,65,30.43,10.0,SW,6.9,-,N/A,,Clear,230,2014-01-24 14:55:00
10:15 AM,5.9,-4.4,63,30.43,10.0,WSW,9.2,-,N/A,,Clear,250,2014-01-24 15:15:00
10:35 AM,7.2,-4.2,60,30.43,10.0,West,9.2,-,N/A,,Clear,260,2014-01-24 15:35:00
10:55 AM,7.9,-3.8,59,30.43,10.0,West,9.2,-,N/A,,Clear,260,2014-01-24 15:55:00
11:15 AM,9.3,-2.7,58,30.42,10.0,WSW,11.5,-,N/A,,Clear,250,2014-01-24 16:15:00
11:35 AM,10.2,-3.1,55,30.42,10.0,WSW,12.7,-,N/A,,Clear,240,2014-01-24 16:35:00
11:55 AM,11.7,-1.7,55,30.41,10.0,WSW,9.2,-,N/A,,Clear,250,2014-01-24 16:55:00
12:15 PM,12.6,-0.8,55,30.40,10.0,SW,9.2,-,N/A,,Clear,230,2014-01-24 17:15:00
12:35 PM,13.3,-1.1,53,30.39,10.0,WSW,10.4,17.3,N/A,,Clear,240,2014-01-24 17:35:00
12:55 PM,14.2,0.5,55,30.37,10.0,West,15.0,-,N/A,,Clear,260,2014-01-24 17:55:00
1:15 PM,14.2,-0.8,52,30.35,10.0,West,16.1,19.6,N/A,,Clear,270,2014-01-24 18:15:00
1:35 PM,14.7,-1.5,49,30.34,10.0,West,16.1,20.7,N/A,,Clear,260,2014-01-24 18:35:00
1:55 PM,15.4,-2.9,44,30.31,10.0,West,17.3,-,N/A,,Clear,270,2014-01-24 18:55:00
2:15 PM,16.3,-4.9,39,30.30,10.0,West,19.6,25.3,N/A,,Clear,270,2014-01-24 19:15:00
2:35 PM,16.7,-5.4,37,30.28,10.0,West,19.6,-,N/A,,Clear,270,2014-01-24 19:35:00
2:55 PM,17.2,-6.7,34,30.26,10.0,West,15.0,-,N/A,,Clear,260,2014-01-24 19:55:00
3:15 PM,18.0,-4.9,36,30.25,10.0,West,16.1,20.7,N/A,,Clear,270,2014-01-24 20:15:00
3:35 PM,18.3,-4.2,37,30.24,10.0,West,16.1,-,N/A,,Clear,270,2014-01-24 20:35:00
3:55 PM,18.3,-4.4,37,30.23,10.0,West,13.8,-,N/A,,Clear,270,2014-01-24 20:55:00
4:15 PM,18.3,-4.2,37,30.23,10.0,West,13.8,-,N/A,,Clear,270,2014-01-24 21:15:00
4:35 PM,18.9,-4.5,36,30.23,10.0,West,15.0,-,N/A,,Clear,270,2014-01-24 21:35:00
4:55 PM,18.9,-4.9,35,30.22,10.0,WSW,10.4,-,N/A,,Clear,250,2014-01-24 21:55:00
5:15 PM,18.0,-4.0,38,30.21,10.0,West,10.4,-,N/A,,Clear,260,2014-01-24 22:15:00
5:35 PM,17.4,-4.0,39,30.21,10.0,West,8.1,-,N/A,,Clear,260,2014-01-24 22:35:00
5:55 PM,16.5,-4.0,40,30.20,10.0,West,6.9,-,N/A,,Clear,260,2014-01-24 22:55:00
6:15 PM,16.2,-4.0,41,30.20,10.0,West,5.8,-,N/A,,Clear,270,2014-01-24 23:15:00
6:35 PM,16.5,-4.0,40,30.19,10.0,WSW,3.5,-,N/A,,Clear,240,2014-01-24 23:35:00
6:55 PM,15.3,-3.5,44,30.18,10.0,Calm,Calm,-,N/A,,Clear,0,2014-01-24 23:55:00
7:15 PM,15.1,-3.5,44,30.17,10.0,West,6.9,-,N/A,,Clear,270,2014-01-25 00:15:00
7:35 PM,14.9,-3.1,45,30.16,10.0,West,8.1,-,N/A,,Clear,260,2014-01-25 00:35:00
7:55 PM,14.5,-3.1,46,30.15,10.0,West,6.9,-,N/A,,Clear,270,2014-01-25 00:55:00
8:15 PM,14.4,-3.3,46,30.13,10.0,West,6.9,-,N/A,,Clear,270,2014-01-25 01:15:00
8:35 PM,13.1,-3.5,48,30.12,10.0,West,8.1,-,N/A,,Clear,280,2014-01-25 01:35:00
8:55 PM,13.3,-4.0,46,30.11,10.0,West,6.9,-,N/A,,Clear,280,2014-01-25 01:55:00
9:15 PM,13.3,-4.5,45,30.09,10.0,West,6.9,-,N/A,,Clear,270,2014-01-25 02:15:00
9:35 PM,13.1,-4.4,46,30.08,10.0,West,8.1,-,N/A,,Clear,270,2014-01-25 02:35:00
9:55 PM,13.1,-4.0,47,30.07,10.0,West,6.9,-,N/A,,Clear,270,2014-01-25 02:55:00
10:15 PM,13.1,-4.0,47,30.07,10.0,West,5.8,-,N/A,,Clear,270,2014-01-25 03:15:00
10:35 PM,13.1,-4.0,47,30.06,10.0,West,8.1,-,N/A,,Clear,260,2014-01-25 03:35:00
10:55 PM,11.8,-2.7,52,30.06,10.0,West,8.1,-,N/A,,Clear,270,2014-01-25 03:55:00
11:15 PM,12.0,-3.8,49,30.05,10.0,West,8.1,-,N/A,,Clear,280,2014-01-25 04:15:00
11:35 PM,12.4,-4.7,46,30.04,10.0,West,9.2,-,N/A,,Clear,270,2014-01-25 04:35:00
11:55 PM,12.2,-4.2,48,30.02,10.0,West,9.2,-,N/A,,Clear,270,2014-01-25 04:55:00